| time (UTC) | temp C | wind direction | speed KPH | gust KPH | rain 1hr cm | rain 24hr cm | rain mn cm | humidity % | barometer mb |
| 20260906083003 | 18 | 320 | 1.6 | 4.8 | 0.00 | 0.05 | 0.00 | 1 | 1011.4 |
| 20260906082503 | 18 | 317 | 3.2 | 8.0 | 0.00 | 0.05 | 0.00 | 1 | 1011.4 |
| 20260906082003 | 18 | 314 | 4.8 | 8.0 | 0.00 | 0.05 | 0.00 | 1 | 1011.4 |
| 20260906081503 | 17 | 320 | 3.2 | 8.0 | 0.00 | 0.05 | 0.00 | 1 | 1011.4 |
| 20260906081003 | 17 | 340 | 1.6 | 3.2 | 0.00 | 0.05 | 0.00 | 1 | 1011.4 |
| 20260906080503 | 17 | 328 | 3.2 | 9.7 | 0.00 | 0.05 | 0.00 | 1 | 1011.4 |
| 20260906080003 | 18 | 334 | 4.8 | 9.7 | 0.00 | 0.05 | 0.00 | 1 | 1011.4 |
| 20260906075503 | 17 | 1 | 4.8 | 8.0 | 0.00 | 0.05 | 0.00 | 1 | 1011.4 |
| 20260906075003 | 17 | 23 | 4.8 | 8.0 | 0.00 | 0.05 | 0.00 | 1 | 1011.4 |
| 20260906074503 | 17 | 27 | 4.8 | 11.3 | 0.00 | 0.05 | 0.00 | 1 | 1011.7 |
| 20260906074003 | 17 | 31 | 4.8 | 11.3 | 0.00 | 0.05 | 0.00 | 1 | 1011.7 |
| 20260906073503 | 18 | 3 | 4.8 | 8.0 | 0.00 | 0.05 | 0.00 | 1 | 1011.7 |
| 20260906073003 | 18 | 315 | 4.8 | 8.0 | 0.00 | 0.05 | 0.00 | 1 | 1011.8 |
| 20260906072503 | 18 | 334 | 4.8 | 8.0 | 0.00 | 0.05 | 0.00 | 1 | 1011.8 |
| 20260906072003 | 18 | 4 | 4.8 | 8.0 | 0.00 | 0.05 | 0.00 | 1 | 1011.8 |
| 20260906071503 | 18 | 15 | 4.8 | 8.0 | 0.00 | 0.05 | 0.00 | 1 | 1011.7 |
| 20260906071003 | 18 | 15 | 4.8 | 6.4 | 0.00 | 0.05 | 0.00 | 1 | 1011.7 |
| 20260906070503 | 18 | 15 | 3.2 | 4.8 | 0.00 | 0.05 | 0.00 | 1 | 1011.7 |
| 20260906070003 | 18 | 15 | 1.6 | 4.8 | 0.00 | 0.05 | 0.00 | 1 | 1011.8 |
| 20260906065503 | 18 | 15 | 1.6 | 4.8 | 0.00 | 0.05 | 0.00 | 1 | 1011.8 |
| 20260906065003 | 18 | 15 | 3.2 | 6.4 | 0.00 | 0.05 | 0.00 | 1 | 1011.8 |
| 20260906064503 | 18 | 15 | 1.6 | 6.4 | 0.00 | 0.05 | 0.00 | 1 | 1012.3 |
| 20260906064003 | 18 | 15 | 3.2 | 4.8 | 0.00 | 0.05 | 0.00 | 1 | 1012.3 |
| 20260906063503 | 18 | 15 | 3.2 | 6.4 | 0.00 | 0.05 | 0.00 | 1 | 1012.3 |
| 20260906063003 | 18 | 15 | 4.8 | 6.4 | 0.00 | 0.05 | 0.00 | 1 | 1012.2 |
| 20260906062503 | 18 | 15 | 4.8 | 8.0 | 0.00 | 0.05 | 0.00 | 1 | 1012.2 |
| 20260906062003 | 18 | 15 | 4.8 | 8.0 | 0.00 | 0.05 | 0.00 | 1 | 1012.2 |
| 20260906061503 | 18 | 15 | 4.8 | 8.0 | 0.00 | 0.05 | 0.00 | 1 | 1012.3 |
| 20260906061003 | 18 | 15 | 3.2 | 8.0 | 0.00 | 0.05 | 0.00 | 1 | 1012.3 |
| 20260906060503 | 18 | 15 | 3.2 | 6.4 | 0.00 | 0.05 | 0.00 | 1 | 1012.3 |
| 20260906060003 | 18 | 11 | 3.2 | 8.0 | 0.00 | 0.05 | 0.00 | 1 | 1012.7 |
| 20260906055503 | 18 | 11 | 4.8 | 8.0 | 0.00 | 0.05 | 0.00 | 1 | 1012.7 |
| 20260906055003 | 18 | 14 | 4.8 | 8.0 | 0.00 | 0.05 | 0.00 | 1 | 1012.7 |
| 20260906054503 | 18 | 15 | 4.8 | 11.3 | 0.00 | 0.05 | 0.00 | 1 | 1012.8 |
| 20260906054003 | 18 | 15 | 3.2 | 11.3 | 0.00 | 0.05 | 0.00 | 1 | 1012.8 |
| 20260906053503 | 18 | 15 | 3.2 | 8.0 | 0.00 | 0.05 | 0.00 | 1 | 1012.8 |
| 20260906053003 | 18 | 15 | 1.6 | 8.0 | 0.00 | 0.05 | 0.00 | 1 | 1012.7 |
| 20260906052503 | 18 | 15 | 1.6 | 4.8 | 0.00 | 0.05 | 0.00 | 1 | 1012.7 |
| 20260906052003 | 18 | 15 | 3.2 | 4.8 | 0.00 | 0.05 | 0.00 | 1 | 1012.7 |
| 20260906051503 | 18 | 15 | 1.6 | 4.8 | 0.00 | 0.05 | 0.00 | 1 | 1012.7 |
| 20260906051003 | 18 | 15 | 1.6 | 4.8 | 0.00 | 0.05 | 0.00 | 1 | 1012.7 |
| 20260906050503 | 18 | 15 | 3.2 | 4.8 | 0.00 | 0.05 | 0.00 | 1 | 1012.7 |
| 20260906050003 | 18 | 15 | 3.2 | 4.8 | 0.00 | 0.05 | 0.00 | 1 | 1012.8 |
| 20260906045503 | 18 | 15 | 3.2 | 6.4 | 0.00 | 0.05 | 0.00 | 1 | 1012.8 |
| 20260906045003 | 19 | 15 | 3.2 | 6.4 | 0.00 | 0.05 | 0.00 | 1 | 1012.8 |
| 20260906044503 | 19 | 15 | 3.2 | 6.4 | 0.00 | 0.05 | 0.00 | 1 | 1012.8 |
| 20260906044003 | 19 | 15 | 1.6 | 4.8 | 0.00 | 0.05 | 0.00 | 1 | 1012.8 |
| 20260906043503 | 19 | 15 | 3.2 | 4.8 | 0.00 | 0.05 | 0.00 | 1 | 1012.8 |
| 20260906043003 | 19 | 15 | 3.2 | 4.8 | 0.00 | 0.05 | 0.00 | 1 | 1012.9 |
| 20260906042503 | 19 | 15 | 3.2 | 4.8 | 0.00 | 0.05 | 0.00 | 1 | 1012.9 |
| 20260906042003 | 20 | 15 | 1.6 | 3.2 | 0.00 | 0.05 | 0.00 | 1 | 1012.9 |
| 20260906041503 | 20 | 15 | 3.2 | 4.8 | 0.00 | 0.05 | 0.00 | 1 | 1013.0 |
| 20260906041003 | 20 | 15 | 3.2 | 4.8 | 0.00 | 0.05 | 0.00 | 1 | 1013.0 |
| 20260906040503 | 20 | 15 | 3.2 | 4.8 | 0.00 | 0.05 | 0.00 | 1 | 1013.0 |
| 20260906040003 | 19 | 15 | 3.2 | 4.8 | 0.00 | 0.05 | 0.00 | 1 | 1012.9 |
| 20260906035503 | 19 | 15 | 3.2 | 6.4 | 0.00 | 0.05 | 0.05 | 1 | 1012.9 |
| 20260906035003 | 19 | 15 | 4.8 | 6.4 | 0.00 | 0.05 | 0.05 | 1 | 1012.9 |
| 20260906034503 | 19 | 15 | 3.2 | 6.4 | 0.00 | 0.05 | 0.05 | 1 | 1012.8 |
| 20260906034003 | 20 | 15 | 1.6 | 6.4 | 0.00 | 0.05 | 0.05 | 1 | 1012.8 |
| 20260906033503 | 20 | 15 | 1.6 | 4.8 | 0.00 | 0.05 | 0.05 | 1 | 1012.8 |
| 20260906033003 | 20 | 15 | 3.2 | 8.0 | 0.00 | 0.05 | 0.05 | 1 | 1012.7 |
| 20260906032503 | 20 | 15 | 4.8 | 8.0 | 0.00 | 0.05 | 0.05 | 1 | 1012.7 |
| 20260906032003 | 20 | 4 | 4.8 | 8.0 | 0.00 | 0.05 | 0.05 | 1 | 1012.7 |
| 20260906031503 | 20 | 339 | 4.8 | 8.0 | 0.00 | 0.05 | 0.05 | 1 | 1012.8 |
| 20260906031003 | 20 | 323 | 4.8 | 8.0 | 0.00 | 0.05 | 0.05 | 1 | 1012.8 |
| 20260906030503 | 20 | 342 | 4.8 | 8.0 | 0.00 | 0.05 | 0.05 | 1 | 1012.8 |
| 20260906030003 | 20 | 52 | 3.2 | 8.0 | 0.00 | 0.05 | 0.05 | 1 | 1013.2 |
| 20260906025503 | 20 | 47 | 4.8 | 8.0 | 0.00 | 0.05 | 0.05 | 1 | 1013.2 |
| 20260906025003 | 20 | 349 | 4.8 | 8.0 | 0.00 | 0.05 | 0.05 | 1 | 1013.2 |
| 20260906024503 | 20 | 328 | 6.4 | 12.9 | 0.00 | 0.05 | 0.05 | 1 | 1012.8 |
| 20260906024003 | 20 | 333 | 6.4 | 12.9 | 0.00 | 0.05 | 0.05 | 1 | 1012.8 |
| 20260906023503 | 20 | 352 | 6.4 | 9.7 | 0.00 | 0.05 | 0.05 | 1 | 1012.8 |
| 20260906023003 | 20 | 19 | 4.8 | 9.7 | 0.00 | 0.05 | 0.05 | 1 | 1012.9 |
| 20260906022503 | 20 | 30 | 3.2 | 6.4 | 0.00 | 0.05 | 0.05 | 1 | 1012.9 |
| 20260906022003 | 21 | 29 | 3.2 | 8.0 | 0.00 | 0.05 | 0.05 | 1 | 1012.9 |
| 20260906021503 | 21 | 29 | 4.8 | 9.7 | 0.00 | 0.05 | 0.05 | 1 | 1012.8 |
| 20260906021003 | 21 | 30 | 4.8 | 9.7 | 0.00 | 0.05 | 0.05 | 1 | 1012.8 |
| 20260906020503 | 21 | 30 | 4.8 | 8.0 | 0.00 | 0.05 | 0.05 | 1 | 1012.8 |
| 20260906020003 | 21 | 30 | 4.8 | 8.0 | 0.00 | 0.05 | 0.05 | 1 | 1012.7 |
| 20260906015503 | 21 | 29 | 4.8 | 8.0 | 0.00 | 0.05 | 0.05 | 1 | 1012.7 |
| 20260906015004 | 21 | 30 | 4.8 | 9.7 | 0.00 | 0.05 | 0.05 | 1 | 1012.7 |
| 20260906014503 | 21 | 9 | 4.8 | 9.7 | 0.00 | 0.05 | 0.05 | 1 | 1012.7 |
| 20260906014003 | 21 | 336 | 4.8 | 8.0 | 0.00 | 0.05 | 0.05 | 1 | 1012.7 |
| 20260906013503 | 21 | 331 | 6.4 | 9.7 | 0.00 | 0.05 | 0.05 | 1 | 1012.7 |
| 20260906013003 | 21 | 334 | 6.4 | 12.9 | 0.00 | 0.05 | 0.05 | 3 | 1012.5 |
| 20260906012503 | 21 | 337 | 6.4 | 12.9 | 0.00 | 0.05 | 0.05 | 6 | 1012.5 |
| 20260906012003 | 21 | 347 | 6.4 | 11.3 | 0.00 | 0.05 | 0.05 | 9 | 1012.5 |
| 20260906011503 | 21 | 14 | 6.4 | 11.3 | 0.00 | 0.05 | 0.05 | 12 | 1012.6 |
| 20260906011003 | 21 | 40 | 4.8 | 8.0 | 0.00 | 0.05 | 0.05 | 15 | 1012.6 |
| 20260906010503 | 21 | 27 | 4.8 | 8.0 | 0.00 | 0.05 | 0.05 | 17 | 1012.6 |
| 20260906010003 | 21 | 13 | 3.2 | 6.4 | 0.00 | 0.05 | 0.05 | 18 | 1012.3 |
| 20260906005503 | 21 | 33 | 1.6 | 6.4 | 0.00 | 0.05 | 0.05 | 19 | 1012.3 |
| 20260906005003 | 21 | 83 | 1.6 | 4.8 | 0.00 | 0.05 | 0.05 | 21 | 1012.3 |
| 20260906004503 | 21 | 200 | 3.2 | 6.4 | 0.00 | 0.05 | 0.05 | 20 | 1012.2 |
| 20260906004003 | 21 | 199 | 3.2 | 8.0 | 0.00 | 0.05 | 0.05 | 21 | 1012.2 |
| 20260906003503 | 21 | 156 | 3.2 | 8.0 | 0.00 | 0.05 | 0.05 | 23 | 1012.2 |
| 20260906003003 | 21 | 30 | 3.2 | 9.7 | 0.00 | 0.05 | 0.05 | 26 | 1011.9 |
| 20260906002503 | 21 | 16 | 3.2 | 9.7 | 0.00 | 0.05 | 0.05 | 27 | 1011.9 |
| 20260906002003 | 22 | 26 | 3.2 | 6.4 | 0.00 | 0.05 | 0.05 | 29 | 1011.9 |
| 20260906001503 | 22 | 9 | 4.8 | 9.7 | 0.00 | 0.05 | 0.05 | 31 | 1011.8 |
| 20260906001003 | 22 | 346 | 4.8 | 12.9 | 0.00 | 0.05 | 0.05 | 33 | 1011.8 |
| 20260906000503 | 22 | 349 | 6.4 | 12.9 | 0.00 | 0.05 | 0.05 | 34 | 1011.8 |
| 20260906000003 | 22 | 352 | 6.4 | 14.5 | 0.00 | 0.05 | 0.05 | 34 | 1011.7 |
| 20260905235503 | 22 | 355 | 6.4 | 14.5 | 0.00 | 0.05 | 0.05 | 37 | 1011.7 |
| 20260905235003 | 22 | 6 | 6.4 | 11.3 | 0.00 | 0.05 | 0.05 | 39 | 1011.7 |
| 20260905234503 | 23 | 350 | 6.4 | 9.7 | 0.00 | 0.05 | 0.05 | 40 | 1011.8 |
| 20260905234003 | 23 | 346 | 6.4 | 11.3 | 0.00 | 0.05 | 0.05 | 41 | 1011.8 |
| 20260905233503 | 23 | 354 | 6.4 | 16.1 | 0.00 | 0.05 | 0.05 | 41 | 1011.8 |
| 20260905233003 | 23 | 339 | 8.0 | 17.7 | 0.00 | 0.05 | 0.05 | 42 | 1011.7 |
| 20260905232503 | 23 | 325 | 8.0 | 17.7 | 0.00 | 0.05 | 0.05 | 42 | 1011.7 |
| 20260905232003 | 23 | 328 | 6.4 | 14.5 | 0.00 | 0.05 | 0.05 | 42 | 1011.7 |
| 20260905231503 | 23 | 334 | 8.0 | 17.7 | 0.00 | 0.05 | 0.05 | 43 | 1011.7 |
| 20260905231003 | 23 | 343 | 8.0 | 17.7 | 0.00 | 0.05 | 0.05 | 44 | 1011.7 |
| 20260905230503 | 23 | 346 | 8.0 | 17.7 | 0.00 | 0.05 | 0.05 | 44 | 1011.7 |
| 20260905230003 | 23 | 346 | 8.0 | 17.7 | 0.00 | 0.05 | 0.05 | 45 | 1011.7 |
| 20260905225503 | 23 | 353 | 8.0 | 16.1 | 0.00 | 0.05 | 0.05 | 45 | 1011.7 |
| 20260905225003 | 24 | 353 | 8.0 | 19.3 | 0.00 | 0.05 | 0.05 | 45 | 1011.7 |
| 20260905224503 | 24 | 354 | 8.0 | 19.3 | 0.00 | 0.05 | 0.05 | 46 | 1011.9 |
| 20260905224003 | 24 | 357 | 8.0 | 16.1 | 0.00 | 0.05 | 0.05 | 46 | 1011.9 |
| 20260905223503 | 25 | 352 | 8.0 | 19.3 | 0.00 | 0.05 | 0.05 | 45 | 1011.9 |
| 20260905223003 | 25 | 348 | 8.0 | 19.3 | 0.00 | 0.05 | 0.05 | 45 | 1011.7 |
| 20260905222503 | 25 | 345 | 9.7 | 19.3 | 0.00 | 0.05 | 0.05 | 45 | 1011.7 |
| 20260905222003 | 25 | 343 | 11.3 | 24.1 | 0.00 | 0.05 | 0.05 | 45 | 1011.7 |
| 20260905221503 | 25 | 338 | 12.9 | 24.1 | 0.00 | 0.05 | 0.05 | 45 | 1011.7 |
| 20260905221003 | 25 | 337 | 12.9 | 20.9 | 0.00 | 0.05 | 0.05 | 46 | 1011.7 |
| 20260905220503 | 25 | 335 | 12.9 | 27.4 | 0.00 | 0.05 | 0.05 | 46 | 1011.7 |
| 20260905220003 | 25 | 333 | 12.9 | 27.4 | 0.00 | 0.05 | 0.05 | 46 | 1011.8 |
| 20260905215503 | 25 | 328 | 12.9 | 24.1 | 0.00 | 0.05 | 0.05 | 45 | 1011.8 |
| 20260905215003 | 25 | 323 | 14.5 | 24.1 | 0.00 | 0.05 | 0.05 | 45 | 1011.8 |
| 20260905214503 | 25 | 324 | 11.3 | 22.5 | 0.00 | 0.05 | 0.05 | 45 | 1011.7 |
| 20260905214003 | 26 | 317 | 11.3 | 27.4 | 0.00 | 0.05 | 0.05 | 45 | 1011.7 |
| 20260905213503 | 26 | 308 | 11.3 | 27.4 | 0.00 | 0.05 | 0.05 | 44 | 1011.7 |
| 20260905213003 | 26 | 301 | 11.3 | 19.3 | 0.00 | 0.05 | 0.05 | 44 | 1011.8 |
| 20260905212503 | 26 | 308 | 11.3 | 19.3 | 0.00 | 0.05 | 0.05 | 44 | 1011.8 |
| 20260905212003 | 26 | 317 | 11.3 | 19.3 | 0.00 | 0.05 | 0.05 | 44 | 1011.8 |
| 20260905211503 | 26 | 317 | 9.7 | 22.5 | 0.00 | 0.05 | 0.05 | 44 | 1011.8 |
| 20260905211003 | 26 | 315 | 11.3 | 22.5 | 0.00 | 0.05 | 0.05 | 44 | 1011.8 |
| 20260905210503 | 26 | 307 | 11.3 | 20.9 | 0.00 | 0.05 | 0.05 | 43 | 1011.8 |
| 20260905210003 | 26 | 309 | 9.7 | 20.9 | 0.00 | 0.05 | 0.05 | 44 | 1011.8 |
| 20260905205503 | 26 | 331 | 8.0 | 17.7 | 0.00 | 0.05 | 0.05 | 43 | 1011.8 |
| 20260905205003 | 25 | 349 | 8.0 | 16.1 | 0.00 | 0.05 | 0.05 | 43 | 1011.8 |
| 20260905204503 | 25 | 326 | 9.7 | 17.7 | 0.00 | 0.05 | 0.05 | 43 | 1012.0 |
| 20260905204003 | 25 | 325 | 8.0 | 17.7 | 0.00 | 0.05 | 0.05 | 42 | 1012.0 |
| 20260905203503 | 25 | 16 | 6.4 | 12.9 | 0.00 | 0.05 | 0.05 | 41 | 1012.0 |
| 20260905203003 | 25 | 36 | 6.4 | 16.1 | 0.00 | 0.05 | 0.05 | 41 | 1011.9 |
| 20260905202503 | 25 | 45 | 6.4 | 16.1 | 0.00 | 0.05 | 0.05 | 41 | 1011.9 |
| 20260905202003 | 25 | 39 | 8.0 | 17.7 | 0.00 | 0.05 | 0.05 | 41 | 1011.9 |
| 20260905201503 | 25 | 35 | 8.0 | 20.9 | 0.00 | 0.05 | 0.05 | 40 | 1011.9 |
| 20260905201003 | 25 | 15 | 6.4 | 20.9 | 0.00 | 0.05 | 0.05 | 40 | 1011.9 |
| 20260905200503 | 24 | 5 | 8.0 | 16.1 | 0.00 | 0.05 | 0.05 | 41 | 1011.9 |
| 20260905200003 | 24 | 355 | 8.0 | 24.1 | 0.00 | 0.05 | 0.05 | 41 | 1011.7 |
| 20260905195503 | 23 | 1 | 12.9 | 25.7 | 0.00 | 0.05 | 0.05 | 41 | 1011.7 |
| 20260905195004 | 23 | 10 | 14.5 | 25.7 | 0.00 | 0.05 | 0.05 | 41 | 1011.7 |
| 20260905194503 | 23 | 13 | 11.3 | 20.9 | 0.00 | 0.05 | 0.05 | 40 | 1011.6 |
| 20260905194003 | 23 | 23 | 9.7 | 20.9 | 0.00 | 0.05 | 0.05 | 40 | 1011.6 |
| 20260905193503 | 23 | 4 | 11.3 | 35.4 | 0.00 | 0.05 | 0.05 | 40 | 1011.6 |
| 20260905193003 | 23 | 336 | 12.9 | 35.4 | 0.00 | 0.05 | 0.05 | 41 | 1011.6 |
| 20260905192503 | 23 | 329 | 16.1 | 43.5 | 0.00 | 0.05 | 0.05 | 40 | 1011.6 |
| 20260905192003 | 23 | 325 | 16.1 | 43.5 | 0.00 | 0.05 | 0.05 | 39 | 1011.6 |
| 20260905191503 | 23 | 338 | 11.3 | 30.6 | 0.00 | 0.05 | 0.05 | 38 | 1011.7 |
| 20260905191003 | 22 | 4 | 11.3 | 25.7 | 0.00 | 0.05 | 0.05 | 35 | 1011.7 |
| 20260905190503 | 22 | 12 | 12.9 | 25.7 | 0.00 | 0.05 | 0.05 | 32 | 1011.7 |
| 20260905190003 | 22 | 9 | 11.3 | 22.5 | 0.00 | 0.05 | 0.05 | 30 | 1011.7 |
| 20260905185503 | 22 | 358 | 8.0 | 22.5 | 0.00 | 0.05 | 0.05 | 26 | 1011.7 |
| 20260905185003 | 21 | 354 | 6.4 | 17.7 | 0.00 | 0.05 | 0.05 | 24 | 1011.7 |
| 20260905184503 | 21 | 8 | 9.7 | 22.5 | 0.00 | 0.05 | 0.05 | 18 | 1012.2 |
| 20260905184003 | 21 | 14 | 9.7 | 22.5 | 0.00 | 0.05 | 0.05 | 12 | 1012.2 |
| 20260905183503 | 21 | 20 | 8.0 | 20.9 | 0.03 | 0.05 | 0.05 | 6 | 1012.2 |
| 20260905183003 | 21 | 35 | 4.8 | 12.9 | 0.03 | 0.05 | 0.05 | 1 | 1012.8 |
| 20260905182503 | 21 | 25 | 4.8 | 11.3 | 0.03 | 0.05 | 0.05 | 1 | 1012.8 |
| 20260905182003 | 20 | 12 | 6.4 | 12.9 | 0.03 | 0.05 | 0.05 | 1 | 1012.8 |
| 20260905181503 | 20 | 14 | 4.8 | 12.9 | 0.05 | 0.05 | 0.05 | 1 | 1013.4 |
| 20260905181003 | 20 | 15 | 4.8 | 11.3 | 0.05 | 0.05 | 0.05 | 1 | 1013.4 |
| 20260905180503 | 20 | 341 | 6.4 | 17.7 | 0.05 | 0.05 | 0.05 | 1 | 1013.4 |
| 20260905180003 | 20 | 331 | 6.4 | 17.7 | 0.05 | 0.05 | 0.05 | 1 | 1013.7 |
| 20260905175503 | 20 | 333 | 6.4 | 14.5 | 0.05 | 0.05 | 0.05 | 1 | 1013.7 |
| 20260905175003 | 20 | 328 | 8.0 | 14.5 | 0.05 | 0.05 | 0.05 | 1 | 1013.7 |
| 20260905174503 | 20 | 324 | 6.4 | 14.5 | 0.05 | 0.05 | 0.05 | 1 | 1014.2 |
| 20260905174003 | 20 | 327 | 3.2 | 6.4 | 0.05 | 0.05 | 0.05 | 1 | 1014.2 |
| 20260905173503 | 20 | 323 | 4.8 | 9.7 | 0.03 | 0.03 | 0.03 | 6 | 1014.2 |
| 20260905173003 | 20 | 334 | 4.8 | 12.9 | 0.03 | 0.03 | 0.03 | 10 | 1015.0 |
| 20260905172503 | 20 | 355 | 6.4 | 14.5 | 0.03 | 0.03 | 0.03 | 15 | 1015.0 |
| 20260905172003 | 21 | 359 | 9.7 | 14.5 | 0.03 | 0.03 | 0.03 | 23 | 1015.0 |
| 20260905171503 | 21 | 358 | 9.7 | 16.1 | 0.00 | 0.00 | 0.00 | 28 | 1015.1 |
| 20260905171003 | 21 | 2 | 12.9 | 24.1 | 0.00 | 0.00 | 0.00 | 32 | 1015.1 |
| 20260905170503 | 21 | 4 | 14.5 | 24.1 | 0.00 | 0.00 | 0.00 | 35 | 1015.1 |
| 20260905170003 | 21 | 3 | 14.5 | 24.1 | 0.00 | 0.00 | 0.00 | 36 | 1015.0 |
| 20260905165503 | 22 | 2 | 14.5 | 27.4 | 0.00 | 0.00 | 0.00 | 38 | 1015.0 |
| 20260905165003 | 22 | 359 | 17.7 | 35.4 | 0.00 | 0.00 | 0.00 | 39 | 1015.0 |
| 20260905164503 | 22 | 357 | 24.1 | 49.9 | 0.00 | 0.00 | 0.00 | 39 | 1015.5 |
| 20260905164003 | 22 | 357 | 27.4 | 49.9 | 0.00 | 0.00 | 0.00 | 39 | 1015.5 |
| 20260905163503 | 23 | 5 | 29.0 | 51.5 | 0.00 | 0.00 | 0.00 | 39 | 1015.5 |
| 20260905163003 | 24 | 8 | 25.7 | 51.5 | 0.00 | 0.00 | 0.00 | 36 | 1014.6 |
| 20260905162503 | 25 | 5 | 19.3 | 49.9 | 0.00 | 0.00 | 0.00 | 29 | 1014.6 |
| 20260905162003 | 25 | 2 | 16.1 | 29.0 | 0.00 | 0.00 | 0.00 | 30 | 1014.6 |
| 20260905161503 | 26 | 353 | 16.1 | 29.0 | 0.00 | 0.00 | 0.00 | 30 | 1014.4 |
| 20260905161003 | 26 | 347 | 16.1 | 27.4 | 0.00 | 0.00 | 0.00 | 31 | 1014.4 |
| 20260905160503 | 26 | 350 | 12.9 | 25.7 | 0.00 | 0.00 | 0.00 | 30 | 1014.4 |
| 20260905160003 | 26 | 345 | 16.1 | 30.6 | 0.00 | 0.00 | 0.00 | 30 | 1014.5 |
| 20260905155503 | 26 | 347 | 14.5 | 32.2 | 0.00 | 0.00 | 0.00 | 31 | 1014.5 |
| 20260905155003 | 27 | 355 | 11.3 | 32.2 | 0.00 | 0.00 | 0.00 | 30 | 1014.5 |
| 20260905154503 | 27 | 353 | 11.3 | 25.7 | 0.00 | 0.00 | 0.00 | 26 | 1014.6 |
| 20260905154003 | 27 | 349 | 9.7 | 24.1 | 0.00 | 0.00 | 0.00 | 27 | 1014.6 |
| 20260905153503 | 26 | 353 | 11.3 | 24.1 | 0.00 | 0.00 | 0.00 | 25 | 1014.6 |
| 20260905153003 | 26 | 355 | 12.9 | 24.1 | 0.00 | 0.00 | 0.00 | 22 | 1014.5 |
| 20260905152503 | 26 | 351 | 9.7 | 22.5 | 0.00 | 0.00 | 0.00 | 23 | 1014.5 |
| 20260905152003 | 26 | 346 | 8.0 | 16.1 | 0.00 | 0.00 | 0.00 | 21 | 1014.5 |
| 20260905151503 | 26 | 346 | 8.0 | 16.1 | 0.00 | 0.00 | 0.00 | 22 | 1014.4 |
| 20260905151003 | 26 | 345 | 6.4 | 16.1 | 0.00 | 0.00 | 0.00 | 22 | 1014.4 |
| 20260905150503 | 26 | 348 | 8.0 | 20.9 | 0.00 | 0.00 | 0.00 | 22 | 1014.4 |
| 20260905150003 | 26 | 349 | 12.9 | 32.2 | 0.00 | 0.00 | 0.00 | 21 | 1014.1 |
| 20260905145503 | 26 | 347 | 14.5 | 32.2 | 0.00 | 0.00 | 0.00 | 20 | 1014.1 |
| 20260905145003 | 26 | 343 | 11.3 | 22.5 | 0.00 | 0.00 | 0.00 | 21 | 1014.1 |
| 20260905144503 | 26 | 344 | 11.3 | 22.5 | 0.00 | 0.00 | 0.00 | 18 | 1014.4 |
| 20260905144003 | 26 | 345 | 11.3 | 22.5 | 0.00 | 0.00 | 0.00 | 19 | 1014.4 |
| 20260905143503 | 25 | 344 | 11.3 | 20.9 | 0.00 | 0.00 | 0.00 | 18 | 1014.4 |
| 20260905143003 | 25 | 348 | 11.3 | 19.3 | 0.00 | 0.00 | 0.00 | 16 | 1014.4 |
| 20260905142503 | 25 | 347 | 12.9 | 22.5 | 0.00 | 0.00 | 0.00 | 15 | 1014.4 |
| 20260905142003 | 25 | 345 | 14.5 | 22.5 | 0.00 | 0.00 | 0.00 | 15 | 1014.4 |
| 20260905141503 | 25 | 346 | 14.5 | 27.4 | 0.00 | 0.00 | 0.00 | 13 | 1014.4 |
| 20260905141003 | 25 | 352 | 12.9 | 27.4 | 0.00 | 0.00 | 0.00 | 14 | 1014.4 |
| 20260905140503 | 25 | 1 | 11.3 | 22.5 | 0.00 | 0.00 | 0.00 | 9 | 1014.4 |
| 20260905140004 | 25 | 2 | 12.9 | 27.4 | 0.00 | 0.00 | 0.00 | 10 | 1014.2 |
| 20260905135503 | 25 | 352 | 12.9 | 27.4 | 0.00 | 0.00 | 0.00 | 9 | 1014.2 |
| 20260905135003 | 25 | 353 | 14.5 | 24.1 | 0.00 | 0.00 | 0.00 | 9 | 1014.2 |
| 20260905134503 | 25 | 360 | 11.3 | 24.1 | 0.00 | 0.00 | 0.00 | 6 | 1014.3 |
| 20260905134003 | 25 | 360 | 9.7 | 19.3 | 0.00 | 0.00 | 0.00 | 3 | 1014.3 |
| 20260905133503 | 25 | 6 | 6.4 | 17.7 | 0.00 | 0.00 | 0.00 | 1 | 1014.3 |
| 20260905133003 | 24 | 15 | 6.4 | 19.3 | 0.00 | 0.00 | 0.00 | 1 | 1014.4 |
| 20260905132503 | 24 | 22 | 4.8 | 19.3 | 0.00 | 0.00 | 0.00 | 1 | 1014.4 |
| 20260905132003 | 23 | 23 | 6.4 | 17.7 | 0.00 | 0.00 | 0.00 | 1 | 1014.4 |
| 20260905131503 | 23 | 19 | 6.4 | 17.7 | 0.00 | 0.00 | 0.00 | 1 | 1014.5 |
| 20260905131003 | 23 | 20 | 4.8 | 14.5 | 0.00 | 0.00 | 0.00 | 1 | 1014.5 |
| 20260905130503 | 23 | 18 | 6.4 | 12.9 | 0.00 | 0.00 | 0.00 | 1 | 1014.5 |
| 20260905130003 | 22 | 13 | 6.4 | 14.5 | 0.00 | 0.00 | 0.00 | 1 | 1014.6 |
| 20260905125503 | 22 | 8 | 6.4 | 14.5 | 0.00 | 0.00 | 0.00 | 1 | 1014.6 |
| 20260905125003 | 22 | 11 | 6.4 | 12.9 | 0.00 | 0.00 | 0.00 | 1 | 1014.6 |
| 20260905124503 | 22 | 17 | 6.4 | 12.9 | 0.00 | 0.00 | 0.00 | 1 | 1014.6 |
| 20260905124003 | 22 | 16 | 4.8 | 8.0 | 0.00 | 0.00 | 0.00 | 1 | 1014.6 |
| 20260905123503 | 22 | 18 | 3.2 | 6.4 | 0.00 | 0.00 | 0.00 | 1 | 1014.6 |
| 20260905123003 | 22 | 15 | 4.8 | 6.4 | 0.00 | 0.00 | 0.00 | 1 | 1014.5 |
| 20260905122503 | 22 | 15 | 3.2 | 6.4 | 0.00 | 0.00 | 0.00 | 1 | 1014.5 |
| 20260905122003 | 22 | 19 | 3.2 | 6.4 | 0.00 | 0.00 | 0.00 | 1 | 1014.5 |
| 20260905121503 | 21 | 21 | 1.6 | 6.4 | 0.00 | 0.00 | 0.00 | 1 | 1014.4 |
| 20260905121003 | 21 | 17 | 3.2 | 6.4 | 0.00 | 0.00 | 0.00 | 1 | 1014.4 |
| 20260905120503 | 21 | 14 | 3.2 | 6.4 | 0.00 | 0.00 | 0.00 | 1 | 1014.4 |
| 20260905120003 | 21 | 12 | 3.2 | 6.4 | 0.00 | 0.00 | 0.00 | 1 | 1014.3 |
| 20260905115503 | 21 | 6 | 4.8 | 11.3 | 0.00 | 0.00 | 0.00 | 1 | 1014.3 |
| 20260905115003 | 21 | 354 | 4.8 | 11.3 | 0.00 | 0.00 | 0.00 | 1 | 1014.3 |
| 20260905114503 | 21 | 347 | 6.4 | 9.7 | 0.00 | 0.00 | 0.00 | 1 | 1014.1 |
| 20260905114003 | 21 | 343 | 4.8 | 9.7 | 0.00 | 0.00 | 0.00 | 1 | 1014.1 |
| 20260905113503 | 21 | 343 | 4.8 | 9.7 | 0.00 | 0.00 | 0.00 | 1 | 1014.1 |
| 20260905113003 | 21 | 347 | 4.8 | 8.0 | 0.00 | 0.00 | 0.00 | 1 | 1014.0 |
| 20260905112503 | 21 | 345 | 4.8 | 8.0 | 0.00 | 0.00 | 0.00 | 1 | 1014.0 |
| 20260905112003 | 21 | 346 | 6.4 | 12.9 | 0.00 | 0.00 | 0.00 | 1 | 1014.0 |
| 20260905111503 | 21 | 347 | 8.0 | 12.9 | 0.00 | 0.00 | 0.00 | 1 | 1013.9 |
| 20260905111003 | 21 | 345 | 8.0 | 12.9 | 0.00 | 0.00 | 0.00 | 1 | 1013.9 |
| 20260905110503 | 21 | 339 | 6.4 | 9.7 | 0.00 | 0.00 | 0.00 | 1 | 1013.9 |
| 20260905110003 | 21 | 335 | 6.4 | 9.7 | 0.00 | 0.00 | 0.00 | 1 | 1013.8 |
| 20260905105503 | 21 | 330 | 6.4 | 9.7 | 0.00 | 0.00 | 0.00 | 1 | 1013.8 |
| 20260905105003 | 20 | 324 | 6.4 | 9.7 | 0.00 | 0.00 | 0.00 | 1 | 1013.8 |
| 20260905104503 | 20 | 325 | 4.8 | 8.0 | 0.00 | 0.00 | 0.00 | 1 | 1013.8 |
| 20260905104003 | 20 | 328 | 6.4 | 9.7 | 0.00 | 0.00 | 0.00 | 1 | 1013.8 |
| 20260905103503 | 20 | 328 | 6.4 | 9.7 | 0.00 | 0.00 | 0.00 | 1 | 1013.8 |
| 20260905103003 | 20 | 332 | 8.0 | 12.9 | 0.00 | 0.00 | 0.00 | 1 | 1013.8 |
| 20260905102503 | 20 | 335 | 6.4 | 12.9 | 0.00 | 0.00 | 0.00 | 1 | 1013.8 |
| 20260905102003 | 20 | 336 | 6.4 | 9.7 | 0.00 | 0.00 | 0.00 | 1 | 1013.8 |
| 20260905101503 | 20 | 344 | 6.4 | 11.3 | 0.00 | 0.00 | 0.00 | 1 | 1013.7 |
| 20260905101003 | 20 | 349 | 6.4 | 12.9 | 0.00 | 0.00 | 0.00 | 1 | 1013.7 |
| 20260905100503 | 20 | 347 | 8.0 | 12.9 | 0.00 | 0.00 | 0.00 | 1 | 1013.7 |
| 20260905100003 | 20 | 344 | 6.4 | 9.7 | 0.00 | 0.00 | 0.00 | 1 | 1013.6 |
| 20260905095503 | 20 | 347 | 6.4 | 8.0 | 0.00 | 0.00 | 0.00 | 1 | 1013.6 |
| 20260905095003 | 20 | 346 | 6.4 | 8.0 | 0.00 | 0.00 | 0.00 | 1 | 1013.6 |
| 20260905094503 | 20 | 341 | 6.4 | 9.7 | 0.00 | 0.00 | 0.00 | 1 | 1013.5 |
| 20260905094003 | 20 | 342 | 4.8 | 9.7 | 0.00 | 0.00 | 0.00 | 1 | 1013.5 |
| 20260905093503 | 20 | 334 | 6.4 | 9.7 | 0.00 | 0.00 | 0.00 | 1 | 1013.5 |
| 20260905093003 | 20 | 327 | 4.8 | 9.7 | 0.00 | 0.00 | 0.00 | 1 | 1013.4 |
| 20260905092503 | 20 | 321 | 4.8 | 8.0 | 0.00 | 0.00 | 0.00 | 1 | 1013.4 |
| 20260905092003 | 20 | 321 | 4.8 | 8.0 | 0.00 | 0.00 | 0.00 | 1 | 1013.4 |
| 20260905091503 | 19 | 323 | 6.4 | 8.0 | 0.00 | 0.00 | 0.00 | 1 | 1013.5 |
| 20260905091003 | 19 | 331 | 6.4 | 8.0 | 0.00 | 0.00 | 0.00 | 1 | 1013.5 |
| 20260905090503 | 19 | 340 | 6.4 | 11.3 | 0.00 | 0.00 | 0.00 | 1 | 1013.5 |
| 20260905090003 | 19 | 352 | 6.4 | 11.3 | 0.00 | 0.00 | 0.00 | 1 | 1013.6 |
| 20260905085503 | 18 | 5 | 4.8 | 8.0 | 0.00 | 0.00 | 0.00 | 1 | 1013.6 |
| 20260905085003 | 18 | 6 | 4.8 | 8.0 | 0.00 | 0.00 | 0.00 | 1 | 1013.6 |
| 20260905084503 | 18 | 6 | 3.2 | 8.0 | 0.00 | 0.00 | 0.00 | 1 | 1013.8 |
| 20260905084003 | 18 | 6 | 4.8 | 6.4 | 0.00 | 0.00 | 0.00 | 1 | 1013.8 |
| 20260905083503 | 18 | 7 | 4.8 | 8.0 | 0.00 | 0.00 | 0.00 | 1 | 1013.8 |